Presure
159 106 160 158 154 170 102 90 83 171 167 183 171 98 156 170 132 97 177 121 163 91 156 87 155 114 87 148 162 169 149 165 149 151 156 167 147 145 125 111 131 124 155
125 102 160 83 160 128 152 172 128 90 88 180 172 93 104 182 107 114 170 185 187 89 159 94 176 124 122 158 101 174 128 109 112 125 158 128 159 118 114 168 130 133 132
151 157 153 157 153 157 97 120 95 166 122 153 131 168 159 172 139 152 161 96 86 109 115 107 167 161 153 130 161 167 102 97 107 101 108 108 116 121 123 93 92 107 132
148 151 151 147 151 141 153 155 164 170 164 157 102 90 175 88 111 121 92 124 103 109 182 95 164 178 110 156 162 164 107 102 117 125 131 144 102 101 119 122 111 125 119
91 103 146 146 131 152 146 104 133 133 115 100 154 90 102 88 149 81 102 131 87 106 124 94 181 183 148 170 165 179 168 109 121 153 123 106 159 119 124 115 121 109 120
96 97 145 98 102 112 164 137 105 96 164 123 123 79 118 82 97 138 88 150 93 92 89 95 181 182 182 176 182 119 172 157 102 102 138 161 109 124 115 105 128 121 126
136 93 96 94 119 147 118 146 105 135 101 93 165 148 80 96 96 97 130 138 134 88 119 95 99 170 140 173 174 172 174 167 159 175 142 105 106 110 124 148 127 118 119
96 97 124 150 120 153 123 101 106 171 150 124 154 131 90 121 107 113 105 147 92 170 131 136 103 174 165 189 187 181 142 150 114 121 149 108 119 109 108 114 148 119 131
97 96 95 95 98 104 152 143 128 99 108 162 181 89 89 95 142 97 144 144 129 98 103 100 120 160 163 171 187 193 149 204 126 125 157 110 102 116 116 133 110 147 111
141 139 144 147 147 146 146 151 148 146 141 162 111 82 159 99 105 101 158 139 97 177 170 161 112 186 195 170 161 143 149 178 127 102 134 118 109 105 85 98 120 118 110
141 143 131 83 98 143 142 147 130 151 148 84 95 110 88 165 147 190 135 159 138 105 166 170 153 158 183 137 181 147 176 201 201 192 192 186 123 133 113 107 111 136 128
89 111 135 138 139 141 145 132 87 82 80 109 131 89 90 104 168 120 156 171 97 103 139 151 168 138 164 179 122 128 177 186 156 156 153 118 129 158 102 133 138 111 113
128 120 130 135 137 135 130 84 81 83 82 93 124 98 103 104 100 91 153 155 157 162 148 163 158 120 123 127 124 165 121 117 141 146 146 130 123 108 90 89 111 110 119
131 129 128 132 109 135 134 134 138 94 135 117 90 92 84 84 88 86 105 95 152 165 176 166 127 119 167 135 136 135 153 143 120 98 122 121 148 153 123 129 141 104 150
108 106 133 132 133 78 131 83 85 91 87 126 105 147 85 86 162 87 89 95 97 155 175 158 167 161 195 122 162 169 107 124 194 172 190 143 157 113 147 101 116 127 129
88 93 136 140 84 143 87 88 84 77 84 111 127 123 82 148 156 133 89 95 98 106 155 142 161 163 177 163 147 127 164 144 123 170 172 140 135 143 133 123 132 131 135
97 101 99 101 129 95 89 87 87 83 147 85 128 144 148 91 94 89 89 96 100 112 167 152 154 199 144 159 153 119 164 155 161 132 138 162 119 149 137 147 127 136 123
101 89 99 144 94 95 95 107 132 82 95 86 90 98 91 84 132 147 92 98 141 143 170 121 136 123 160 191 155 120 122 118 125 132 127 129 138 135 135 139 127 102 115
121 98 95 117 107 130 120 98 91 135 138 77 90 84 98 101 134 97 115 109 134 131 134 144 176 118 117 153 143 151 142 159 125 136 128 124 120 130 136 134 103 130 144
140 155 156 153 158 168 157 172 121 109 111 130 136 132 91 139 112 148 132 124 123 133 137 142 126 141 152 132 163 143 141 141 131 129 132 130 133 134 139 143 142 129 146
128 135 152 134 155 155 157 160 165 163 161 165 145 87 133 167 129 166 114 162 124 148 141 135 147 147 151 144 170 140 164 134 129 127 139 136 135 142 136 150 143 152 147
225 185 211 146 209 158 157 197 152 157 159 164 186 172 241 170 166 168 165 156 174 142 133 148 146 138 143 104 141 161 146 136 139 132 127 137 144 142 151 145 149 145 150
208 183 218 220 202 227 191 192 227 223 224 200 162 162 172 189 171 205 224 170 129 173 174 181 137 140 142 130 166 162 143 155 144 142 144 141 126 146 169 182 159 156 167
218 218 213 234 258 271 285 233 216 236 224 290 297 271 168 155 284 285 270 267 165 263 274 137 232 226 150 145 150 159 143 136 140 140 162 121 149 148 161 160 151 151 154
237 249 264 201 196 239 253 243 254 261 267 266 268 269 137 268 271 268 320 311 192 172 164 268 332 177 263 302 155 153 153 151 156 128 150 137 129 162 137 153 209 182 158
278 265 233 238 242 244 245 246 254 261 264 277 317 307 300 297 284 287 285 273 280 283 296 325 346 119 135 330 231 151 151 138 169 126 134 127 149 150 126 156 147 146 169
Wind_Speed
28 15 21 18 20 18 18 4 5 26 24 29 23 3 22 24 13 4 21 19 26 9 28 13 26 17 17 21 23 22 19 22 18 18 19 20 18 18 9 8 10 10 17
20 15 23 7 20 22 28 22 18 5 1 28 24 1 8 27 14 14 22 24 25 12 27 15 27 20 21 25 22 24 20 19 15 6 22 6 20 6 10 20 9 12 12
25 24 22 20 18 21 12 18 11 28 18 24 18 25 25 27 19 23 23 8 12 14 19 21 26 29 27 23 26 26 17 21 14 21 18 14 17 7 8 19 20 20 16
28 26 24 22 20 23 24 27 27 30 27 27 11 7 29 3 11 14 7 18 15 15 32 17 28 30 22 29 29 29 18 19 21 19 16 17 19 16 10 11 12 15 15
12 15 25 25 20 24 28 17 26 26 19 11 25 9 13 5 25 8 14 21 12 18 25 18 33 33 26 31 30 30 31 16 24 24 11 17 24 11 9 11 13 15 17
17 17 28 16 16 19 27 30 17 15 32 20 23 7 20 9 12 25 13 28 17 16 19 23 34 35 34 32 32 25 32 27 22 22 20 26 14 9 10 18 15 18 19
29 17 18 17 23 31 19 28 19 28 16 14 27 31 8 17 17 19 28 28 27 21 25 25 26 32 27 34 33 32 33 31 30 31 17 18 16 14 20 20 15 15 20
21 18 29 36 25 34 26 20 21 33 33 27 36 30 17 26 20 24 24 34 24 36 29 29 27 34 32 40 38 36 26 28 20 17 26 23 13 15 16 13 24 14 16
27 18 17 18 19 24 37 35 30 21 25 36 38 16 18 20 33 23 39 35 29 27 29 28 25 32 32 33 37 37 28 40 18 19 33 20 22 16 15 22 22 26 13
42 38 37 38 37 35 36 38 38 35 34 39 23 15 36 24 25 24 41 35 30 41 40 34 28 37 40 37 33 27 32 37 20 25 30 19 23 22 25 26 18 18 17
43 41 36 17 23 38 38 38 33 40 38 18 22 27 23 42 40 44 34 40 35 32 38 40 36 39 39 28 39 33 37 39 42 43 40 37 23 27 24 22 21 28 26
18 30 37 39 40 41 41 35 21 15 15 28 35 23 25 28 45 32 40 43 34 33 38 37 42 32 37 41 24 30 39 37 33 29 28 26 30 35 26 29 29 22 22
42 38 40 41 41 41 38 24 19 23 19 25 36 24 28 30 29 31 41 42 43 43 38 44 41 30 30 28 27 41 26 27 35 36 38 28 27 30 29 31 25 24 27
46 44 42 42 33 43 43 45 45 29 43 37 30 31 25 26 31 31 36 37 43 46 50 45 37 35 44 37 37 33 40 36 31 28 31 32 38 38 31 31 36 31 42
35 34 50 49 48 18 47 24 25 30 28 43 36 47 31 32 53 35 39 41 42 45 54 44 47 43 56 36 45 49 32 29 49 46 46 39 38 34 41 32 34 34 35
31 34 54 56 27 57 28 31 29 26 32 39 44 44 32 50 54 47 39 42 43 41 46 43 47 48 54 46 44 37 48 38 35 43 42 39 40 43 36 35 39 38 40
43 44 41 42 54 36 38 33 34 32 57 34 47 51 53 42 42 41 43 47 46 45 53 46 48 62 42 47 47 38 48 45 48 38 40 47 39 46 42 48 38 44 35
51 33 43 65 42 45 46 48 56 34 47 36 39 44 45 39 50 54 50 51 44 44 61 43 44 41 56 64 49 42 41 42 40 39 40 41 44 42 43 47 45 38 39
54 49 43 56 52 62 57 47 43 62 63 27 47 37 51 45 52 53 50 51 43 42 50 46 66 37 46 52 48 50 50 53 44 45 45 45 45 45 46 45 41 46 55
67 72 72 69 71 73 73 79 57 57 57 62 61 59 47 60 54 61 55 54 51 49 50 52 48 49 58 49 62 51 50 49 47 47 50 46 48 49 51 54 55 43 59
64 68 74 67 74 74 75 77 79 78 77 78 70 43 64 80 61 78 56 71 54 63 59 53 58 57 60 56 67 53 63 50 47 49 55 52 52 56 49 59 56 61 61
75 72 73 72 77 77 76 83 73 76 77 81 84 83 88 83 79 79 79 74 84 63 58 65 64 57 58 45 55 65 58 52 56 51 49 55 60 58 64 59 62 61 64
75 73 81 83 79 84 81 81 87 88 90 85 78 79 85 86 84 88 93 82 62 84 86 88 62 62 63 57 75 67 57 62 58 57 59 55 51 62 74 80 64 65 65
81 83 83 83 88 89 85 89 91 87 89 69 69 70 75 74 79 82 82 84 83 85 94 62 96 95 67 67 65 71 59 54 54 55 70 54 66 61 68 59 57 58 61
84 87 90 81 80 73 73 80 76 72 70 71 71 72 65 75 77 81 54 58 69 73 76 82 84 80 95 100 65 69 67 62 65 55 62 59 54 77 52 56 91 80 62
80 73 70 72 73 73 74 76 76 75 72 65 43 44 47 45 52 52 54 65 65 75 87 78 79 58 59 90 86 69 66 60 78 60 58 59 66 66 56 56 55 54 62
Wind_Direction
271 243 270 266 265 280 238 277 115 284 290 284 280 319 283 286 288 303 280 297 267 302 271 326 274 295 324 283 281 275 281 270 288 286 282 278 294 297 310 351 319 359 292
251 236 271 224 265 268 278 278 274 312 216 286 279 30 308 285 299 305 285 283 280 319 269 311 266 302 295 280 313 277 293 310 316 348 283 318 288 325 328 287 350 346 345
268 267 263 264 261 264 253 257 269 277 258 277 280 279 278 278 278 284 288 306 317 304 298 302 283 272 274 292 279 277 298 307 318 322 318 315 310 336 353 335 333 342 342
268 267 264 257 257 250 262 268 268 276 273 280 259 233 282 251 279 282 277 283 285 293 281 302 282 270 291 279 276 278 285 293 299 299 292 284 312 321 342 355 350 351 352
234 244 256 258 259 256 255 263 258 268 256 254 273 239 271 260 277 324 293 283 292 296 295 305 274 274 277 270 273 270 273 294 290 278 283 304 282 320 337 344 350 332 349
233 234 261 240 253 253 267 256 263 247 277 259 264 264 270 278 280 272 293 282 294 296 306 304 274 274 273 274 273 278 270 271 286 290 284 281 300 322 333 314 338 318 341
256 235 240 244 256 259 257 258 263 265 253 239 268 271 285 282 283 291 281 280 285 300 294 303 305 279 288 280 275 274 274 277 276 275 279 291 292 296 295 303 321 328 332
261 254 258 261 256 265 257 254 266 261 271 269 270 272 274 274 272 283 286 282 295 282 288 287 298 280 277 274 274 276 280 274 269 270 277 290 281 286 289 311 297 332 315
260 254 247 251 261 264 265 265 265 248 264 277 272 279 282 279 274 280 281 283 287 298 299 298 286 281 279 277 272 272 279 272 266 273 279 270 284 280 286 303 306 299 310
250 246 252 259 263 264 267 269 271 268 272 278 277 304 274 283 283 291 274 283 298 275 280 282 290 276 274 277 272 281 278 277 272 278 267 264 273 283 306 297 305 307 299
250 254 256 241 255 259 260 263 267 268 268 292 270 280 301 271 271 273 282 276 281 295 273 276 278 280 271 276 274 281 273 273 274 275 276 280 272 289 291 284 289 296 308
258 254 251 255 258 260 262 263 258 279 288 280 273 288 295 295 272 287 274 273 297 297 283 278 277 280 278 274 270 279 275 269 271 273 279 263 278 275 284 291 294 294 296
251 254 245 251 256 259 263 251 269 275 287 288 278 293 295 293 304 316 271 272 275 275 269 276 279 279 277 281 269 278 271 267 283 280 280 278 276 271 284 289 289 285 295
249 251 251 253 251 257 259 262 266 258 267 274 293 287 299 301 305 302 300 306 278 276 276 273 274 276 272 274 277 279 275 277 270 279 269 270 279 268 283 287 294 285 293
248 250 255 255 254 249 253 264 269 268 271 268 276 272 285 290 272 295 300 302 303 274 275 273 273 271 273 272 274 273 278 270 270 269 269 272 272 276 284 284 280 288 291
240 245 255 258 251 260 250 257 258 265 266 267 268 271 281 272 275 280 293 292 294 293 272 274 271 270 273 269 269 269 271 268 268 266 265 278 275 279 281 280 285 286 289
255 253 250 247 257 259 262 258 257 257 265 266 266 267 270 285 281 284 289 288 289 286 270 272 272 267 266 267 267 271 268 268 269 272 273 267 272 275 280 279 280 285 279
255 250 253 255 255 256 260 262 265 273 264 267 273 272 272 288 273 272 286 284 272 274 271 277 268 268 269 267 268 270 266 267 266 267 269 273 277 278 274 280 283 292 281
258 261 260 261 258 264 261 262 265 265 265 273 272 275 273 274 267 275 274 275 268 267 274 269 266 275 267 268 271 271 270 268 270 269 269 268 270 275 280 281 280 282 285
252 261 261 260 262 262 262 262 264 268 268 267 270 272 276 269 273 267 270 272 272 268 268 269 267 268 270 268 271 268 268 268 271 273 275 277 280 281 282 282 282 281 285
251 255 259 254 261 262 263 264 265 265 266 267 268 276 270 267 266 272 269 270 270 269 270 265 270 269 269 267 269 266 270 270 270 270 274 279 282 282 283 275 280 274 281
268 262 269 258 268 264 265 269 264 266 266 267 268 266 269 267 268 267 269 270 268 266 267 268 268 266 265 271 264 267 267 267 268 271 274 277 278 282 277 282 279 282 279
271 266 267 267 266 267 267 268 270 270 272 270 267 268 267 268 268 269 270 265 270 268 267 266 268 268 269 268 266 265 268 266 268 272 273 276 274 275 273 273 277 276 270
265 265 268 276 281 283 279 271 271 273 274 276 276 275 266 265 275 273 272 273 266 272 267 272 266 269 266 268 268 267 265 267 270 273 271 269 275 275 276 273 276 276 275
277 280 282 268 269 276 278 274 276 277 276 275 275 274 263 274 273 273 282 280 270 269 269 271 269 266 262 259 269 269 270 270 268 268 270 271 268 274 268 277 267 271 275
276 277 275 275 275 276 275 276 277 278 278 276 268 271 272 277 275 278 278 276 287 288 283 280 270 269 268 256 259 268 269 266 268 270 270 273 271 273 275 271 268 267 270